Weather Service Report


592 
ASUS41 KCTP 251610
RWRCTP

REGIONAL WEATHER ROUNDUP
NATIONAL WEATHER SERVICE STATE COLLEGE PA
1200 PM EDT TUE JUL 25 2017

Note: "fair" indicates few or no clouds below 12,000 feet with no 
significant weather and/or obstructions to visibility.

* = STATION THAT DOES NOT REPORT PRECIPITATION /E.G. RAIN...SNOW...ETC/
    THUNDER OR FOG.

PAZ002>004-007>009-013>016-020>023-029>032-251700-
WESTERN PENNSYLVANIA
  
CITY           SKY/WX    TMP DP  RH WIND       PRES   REMARKS
ERIE           PTSUNNY   68  55  63 N9        30.20R                  
MEADVILLE      NOT AVBL                                               
FRANKLIN*      PTSUNNY   63  55  77 N3        30.22R                  
NEW CASTLE     CLOUDY    67  59  75 NW6       30.21R                  
BEAVER COUNTY  CLOUDY    66  59  77 N6        30.20S                  
BUTLER*        CLOUDY    66  55  68 NW3       30.20R                  
PITTSBURGH INT CLOUDY    67  58  72 NW10      30.20R                  
PITTSBURGH     CLOUDY    66  55  67 NW7       30.19R                  
INDIANA*       CLOUDY    64  59  82 NW3       30.21S                  
LATROBE        PTSUNNY   66  57  72 NW6       30.19F                  
WASHINGTON CO* CLOUDY    66  55  68 N5        30.20S                  
$$

PAZ004>006-010>012-017>019-024>028-033>037-041-042-045-046-049>053-251700-
CENTRAL PENNSYLVANIA
  
CITY           SKY/WX    TMP DP  RH WIND       PRES   REMARKS
BRADFORD       CLOUDY    60  55  83 N8        30.19S                  
DUBOIS         CLOUDY    65  55  70 NW12      30.17S                  
CLEARFIELD     CLOUDY    68  57  68 VRB5      30.16S                  
JOHNSTOWN      CLOUDY    61  56  83 W10       30.19R                  
ALTOONA          N/A     66  58  75 MISG      30.16S                  
STATE COLLEGE  CLOUDY    68  57  68 NW8       30.14R                  
WILLIAMSPORT   CLOUDY    72  59  63 W6        30.09R                  
SELINSGROVE    CLOUDY    71  61  70 NW5       30.11R                  
FT INDIANTOWN  PTSUNNY   73  60  62 N8        30.09S                  
CAPITAL CITY   PTSUNNY   74  58  57 NW6       30.10R                  
HARRISBURG     CLOUDY    74  59  59 NW10      30.09R                  
YORK           CLOUDY    73  61  65 N5        30.11R                  
$$

PAZ038>040-043-044-047-048-054-055-060>062-067>071-251700-
EASTERN PENNSYLVANIA
  
CITY           SKY/WX    TMP DP  RH WIND       PRES   REMARKS
SCRANTON       CLOUDY    68  61  78 NW5       30.11R                  
MOUNT POCONO   CLOUDY    63  60  90 NW8       30.12R                  
ALLENTOWN      PTSUNNY   73  63  70 E6        30.08R                  
QUAKERTOWN*    CLOUDY    68  64  88 CALM      30.10R                  
READING        CLOUDY    74  64  71 N5        30.08R                  
LANCASTER      CLOUDY    75  63  66 N7        30.09R                  
COATESVILLE    PTSUNNY   72  64  78 N6        30.11R                  
POTTSTOWN      CLOUDY    72  65  78 CALM      30.10R                  
BLUE BELL      PTSUNNY   72  64  78 E3        30.10R                  
DOYLESTOWN     CLOUDY    69  64  84 VRB3      30.09R                  
WILLOW GROVE   NOT AVBL                                               
NORTH PHILA    CLOUDY    73  64  73 E7        30.10R                  
PHILADELPHIA   PTSUNNY   73  62  68 NE7       30.08R                  
$$
  

Return to Home page


Western Regional Climate Center, wrcc@dri.edu